ELEKTRO (GOMS)

导读

ELEKTRO(GOMS)是苏联解体后独联体(CIS)发射的首颗地球静止轨道气象卫星,1994年10月31日发射,属于俄罗斯"电子星"GOMS气象卫星系列的首发星。它定点于地球静止轨道,承担对地气象观测任务,与极轨流星系列卫星形成观测互补,开启了独联体/俄罗斯静止轨道气象卫星的发展历程,为区域气象监测、天气预报提供重要空间数据支撑。

基本信息
目录编号:
23327
目录名称:
ELEKTRO (GOMS)
国际标识:
1994-069A
轨道中心:
EARTH
卫星名称:
ELEKTRO (GOMS)
卫星全名:
--
卫星状态:
在轨 (已飞行11556 天)
发射日期:
1994-10-31 UTC
国别 :
俄罗斯(独联体) (CIS)
星等 :
--
轨道信息
数据来源 国际轨道数据 AOE轨道数据
星历时间 2026-06-20T07:31:27+0800
1天前
查看轨道信息
2026-06-21T08:00:00+0800
14小时前
查看轨道信息
半长轴 42161km 42161.252km
偏心率 0.0007989 0.0007564
轨道倾角 14.476° 14.476°
近地点辐角 268.759° 267.347°
升交点赤经 349.274° 349.269°
平近点角 82.864° 92.465°
近地点 35749.18km 35751.224km
远地点 35816.546km 35815.006km
周期 1435.906分钟 1435.919分钟
每日圈数 1.002851 1.002842
详细信息
使用方式:
暂无
2D轨道图
3D轨道图
轨道高度分析图
轨道倾角分析图
轨道综合分析图
查看轨道综合分析图